Location: Vancouver
(49.2500°N, 123.1330°W)
Time: 07:26:24
(UTC-07:00)

Cosmos 676 Rocket - Visible Passes

Search period start: 28 April 2015 00:00
Search period end: 08 May 2015 00:00
Orbit: 754 x 786 km, 74.0° (Epoch: 27 April)

Date Brightness Start Highest point End Pass type
(mag) Time Alt. Az. Time Alt. Az. Time Alt. Az.
28 Apr 6.1 00:18:08 14° E 00:18:08 14° E 00:20:15 10° ENE visible
28 Apr 3.8 01:58:26 81° SW 01:58:42 87° WNW 02:04:03 10° NNE visible
28 Apr 6.0 03:38:43 12° W 03:41:43 18° NW 03:45:17 10° N visible
29 Apr 4.2 01:22:27 60° E 01:22:27 60° E 01:27:34 10° NNE visible
29 Apr 5.6 03:02:44 20° W 03:04:53 26° NW 03:09:15 10° N visible
30 Apr 4.8 00:46:27 37° E 00:46:27 37° E 00:50:55 10° NE visible
30 Apr 5.0 02:26:44 31° W 02:28:11 37° NW 02:33:06 10° N visible
01 May 5.5 00:10:25 24° E 00:10:25 24° E 00:14:02 10° NE visible
01 May 4.4 01:50:42 49° W 01:51:35 56° WNW 01:56:49 10° NNE visible
01 May 6.4 03:32:34 10° WNW 03:35:02 13° NW 03:37:21 10° NNW visible
01 May 6.0 23:34:21 15° E 23:34:21 15° E 23:36:42 10° ENE visible
02 May 3.9 01:14:38 75° SW 01:15:04 86° WNW 01:20:27 10° NNE visible
02 May 6.1 02:54:55 11° W 02:58:06 18° NW 03:01:39 10° N visible
03 May 4.0 00:38:32 61° ESE 00:38:41 62° ESE 00:43:57 10° NNE visible
03 May 5.7 02:18:49 18° W 02:21:16 25° NW 02:25:38 10° N visible
04 May 4.6 00:02:24 39° ESE 00:02:24 39° ESE 00:07:18 10° NE visible
04 May 5.2 01:42:41 28° W 01:44:33 36° NW 01:49:28 10° N visible
04 May 5.3 23:26:14 25° E 23:26:14 25° E 23:30:27 10° NE visible
05 May 4.5 01:06:30 42° WSW 01:07:57 55° WNW 01:13:12 10° NNE visible
05 May 6.5 02:49:01 10° WNW 02:51:26 13° NW 02:53:42 10° NNW visible
05 May 5.8 22:50:01 16° E 22:50:01 16° E 22:53:09 10° ENE visible
06 May 4.0 00:30:17 56° SSW 00:31:27 84° WNW 00:36:49 10° NNE visible
06 May 6.3 02:10:53 10° W 02:14:30 18° NW 02:18:00 10° N visible
06 May 4.0 23:54:01 52° SSE 23:55:02 63° ESE 00:00:20 10° NNE visible
07 May 5.9 01:34:17 14° W 01:37:40 25° NW 01:42:00 10° N visible
07 May 4.5 23:17:41 36° SE 23:18:44 40° ESE 23:23:41 10° NE visible
